DW4821 Weather Reports


time (UTC)temp
C
wind
direction
speed
KPH
gust
KPH
rain 1hr
cm
rain 24hr
cm
rain mn
cm
humidity
%
barometer
mb
20260905004528 18 22 14.5 29.0 0.00 0.00 0.00 38 1006.3
20260905003028 18 10 22.5 33.8 0.00 0.00 0.00 37 1006.4
20260905001527 19 19 16.1 33.8 0.00 0.00 0.00 36 1006.4
20260905000027 21 32 22.5 38.6 0.00 0.00 0.00 33 1006.7
20260904234532 20 2 17.7 33.8 0.00 0.00 0.00 34 1006.4
20260904233024 21 356 19.3 33.8 0.00 0.00 0.00 33 1006.5
20260904231520 20 350 16.1 30.6 0.00 0.00 0.00 34 1006.5
20260904230018 21 40 24.1 37.0 0.00 0.00 0.00 33 1006.3
20260904224517 21 25 20.9 35.4 0.00 0.00 0.00 33 1006.0
20260904223014 21 360 17.7 35.4 0.00 0.00 0.00 33 1005.8
20260904221513 22 334 12.9 33.8 0.00 0.00 0.00 31 1005.6
20260904220024 21 187 11.3 40.2 0.00 0.00 0.00 33 1005.6
20260904214512 21 187 27.4 43.5 0.00 0.00 0.00 33 1005.2
20260904213012 21 302 29.0 40.2 0.00 0.00 0.00 34 1004.9
20260904211505 22 311 27.4 43.5 0.00 0.00 0.00 33 1004.8
20260904210003 21 285 24.1 40.2 0.00 0.00 0.00 34 1004.4
20260904204502 21 292 22.5 35.4 0.00 0.00 0.00 33 1004.5
20260904203100 21 288 24.1 40.2 0.00 0.00 0.00 35 1004.4
20260904201558 20 258 19.3 32.2 0.00 0.00 0.00 36 1004.3
20260904200058 21 121 3.2 9.7 0.00 0.00 0.00 36 1004.2
20260904194558 20 192 1.6 9.7 0.00 0.00 0.00 35 1003.7
20260904193059 20 227 6.4 17.7 0.00 0.00 0.00 36 1003.6
20260904191553 20 154 3.2 12.9 0.00 0.00 0.00 35 1003.5
20260904190052 20 182 1.6 9.7 0.00 0.00 0.00 35 1003.2
20260904184557 20 79 3.2 6.4 0.00 0.00 0.00 34 1003.2
20260904183051 20 45 3.2 6.4 0.00 0.00 0.00 35 1003.1
20260904181555 19 221 0.0 6.4 0.00 0.00 0.00 37 1003.1
20260904180050 18 219 1.6 6.4 0.00 0.00 0.00 37 1003.2
20260904174603 18 218 4.8 17.7 0.00 0.00 0.00 37 1003.0
20260904173040 18 163 3.2 8.0 0.00 0.00 0.00 38 1002.8
20260904171540 18 215 6.4 16.1 0.00 0.00 0.00 39 1002.8
20260904170039 18 227 11.3 17.7 0.00 0.00 0.00 39 1002.8
20260904164537 18 242 14.5 20.9 0.00 0.00 0.00 39 1002.8
20260904163049 18 242 8.0 16.1 0.00 0.00 0.00 40 1002.6
20260904161538 18 254 9.7 16.1 0.00 0.00 0.00 39 1002.5
20260904160035 18 187 1.6 8.0 0.00 0.00 0.00 40 1002.6
20260904154534 17 85 4.8 12.9 0.00 0.00 0.00 41 1002.0
20260904153042 17 53 8.0 16.1 0.00 0.00 0.00 41 1001.5
20260904151533 17 80 8.0 16.1 0.00 0.00 0.00 43 1001.4
20260904150032 17 94 8.0 16.1 0.00 0.00 0.00 44 1001.6
20260904144527 16 74 9.7 16.1 0.00 0.00 0.00 46 1001.4
20260904143024 15 43 6.4 12.9 0.00 0.00 0.00 52 1001.7
20260904141524 13 54 4.8 12.9 0.00 0.00 0.00 54 1001.7
20260904140022 13 54 8.0 16.1 0.00 0.00 0.00 55 1001.6
20260904134522 13 59 8.0 20.9 0.00 0.00 0.00 55 1001.7
20260904133022 12 47 4.8 16.1 0.00 0.00 0.00 58 1001.8
20260904131521 11 54 3.2 9.7 0.00 0.00 0.00 59 1001.9
20260904130021 11 41 4.8 12.9 0.00 0.00 0.00 59 1001.5
20260904124520 12 58 6.4 17.7 0.00 0.00 0.00 58 1001.5
20260904123019 12 32 6.4 12.9 0.00 0.00 0.00 56 1001.5
20260904121518 12 64 8.0 19.3 0.00 0.00 0.00 55 1001.6
20260904120020 12 42 9.7 17.7 0.00 0.00 0.00 56 1001.7
20260904114516 12 68 9.7 14.5 0.00 0.00 0.00 55 1001.8
20260904113019 13 56 8.0 16.1 0.00 0.00 0.00 53 1001.8
20260904111513 13 65 11.3 16.1 0.00 0.00 0.00 53 1001.8
20260904110021 13 57 8.0 12.9 0.00 0.00 0.00 53 1001.9
20260904104511 13 58 8.0 14.5 0.00 0.00 0.00 51 1002.1
20260904103010 13 55 9.7 16.1 0.00 0.00 0.00 53 1002.3
20260904101506 12 27 8.0 17.7 0.00 0.00 0.00 54 1002.5
20260904100005 12 48 8.0 12.9 0.00 0.00 0.00 56 1002.7
20260904094504 12 34 6.4 12.9 0.00 0.00 0.00 57 1002.7
20260904093004 12 46 12.9 22.5 0.00 0.00 0.00 56 1002.8
20260904091502 11 50 8.0 12.9 0.00 0.00 0.00 58 1003.0
20260904090100 11 50 8.0 16.1 0.00 0.00 0.00 58 1003.2
20260904084555 12 69 12.9 16.1 0.00 0.00 0.00 56 1003.4
20260904083053 12 65 11.3 16.1 0.00 0.00 0.00 55 1003.5
20260904081551 12 54 6.4 12.9 0.00 0.00 0.00 55 1003.5
20260904080046 13 46 6.4 11.3 0.00 0.00 0.00 53 1003.6
20260904074545 13 48 6.4 11.3 0.00 0.00 0.00 54 1003.8
20260904073041 13 49 4.8 9.7 0.00 0.00 0.00 54 1003.8
20260904071540 13 42 3.2 6.4 0.00 0.00 0.00 54 1003.9
20260904070046 14 40 3.2 8.0 0.00 0.00 0.00 52 1004.0
20260904064543 15 29 4.8 6.4 0.00 0.00 0.00 50 1004.1
20260904063036 15 7 6.4 11.3 0.00 0.00 0.00 49 1004.1
20260904061538 14 360 6.4 9.7 0.00 0.00 0.00 51 1004.1
20260904060027 14 357 8.0 11.3 0.00 0.00 0.00 51 1004.1
20260904054531 13 6 9.7 12.9 0.00 0.00 0.00 50 1004.5
20260904053025 14 36 4.8 8.0 0.00 0.00 0.00 48 1004.7
20260904051531 15 82 3.2 6.4 0.00 0.00 0.00 46 1005.0
20260904050024 15 83 1.6 3.2 0.00 0.00 0.00 46 1005.0
20260904044531 15 82 1.6 4.8 0.00 0.00 0.00 47 1004.9
20260904043022 14 83 3.2 6.4 0.00 0.00 0.00 47 1004.9
20260904041521 14 83 4.8 11.3 0.00 0.00 0.00 48 1004.7
20260904040021 13 10 3.2 4.8 0.00 0.00 0.00 48 1004.6
20260904034540 14 9 1.6 4.8 0.00 0.00 0.00 47 1004.5
20260904033023 14 9 3.2 6.4 0.00 0.00 0.00 46 1004.8
20260904031521 15 3 3.2 8.0 0.00 0.00 0.00 45 1004.7
20260904030018 15 2 1.6 6.4 0.00 0.00 0.00 46 1004.6
20260904024517 14 8 0.0 6.4 0.00 0.00 0.00 46 1004.4
20260904023015 15 346 0.0 0.0 0.00 0.00 0.00 44 1004.3
20260904021515 16 346 1.6 8.0 0.00 0.00 0.00 43 1004.1
20260904020013 16 344 0.0 4.8 0.00 0.00 0.00 42 1004.1
20260904014513 17 344 3.2 8.0 0.00 0.00 0.00 41 1004.1
20260904013013 18 333 1.6 11.3 0.00 0.00 0.00 39 1004.2
20260904011542 18 313 8.0 16.1 0.00 0.00 0.00 38 1004.2
20260904010011 19 316 11.3 25.7 0.00 0.00 0.00 36 1004.1